Погода в Хеленсвейле

Австралия     27°54′46″S   153°19′35″E
темп.,
°C
ветер,
м/с
пор.,
м/с
влажн.,
%
обл.,
%
осадки,
мм/ч
давл.,
гПа
погр.,
м
18 апреля, вс
вс1801:00+14юз139890 0.3 101886
04:00+13юз129928 0.3 101760
07:00+13юз13962 0.0 101892
10:00+20ю23581 0.0 1018976
13:00+23ююв124416 0.0 10161950
16:00+20ююв236080 0.0 1016810
19:00+15ююв23840 0.0 1018100
22:00+14ююз128837 0.0 101947
19 апреля, пн
пн1901:00+13юз21900 0.0 101832
04:00+12юз22920 0.0 101736
07:00+14ююз12840 0.0 101963
10:00+22всв01480 0.0 10191188
13:00+23ссв224516 0.0 10162004
16:00+20в23644 0.0 1016583
19:00+15ююв11900 0.0 101811
22:00+14юз11910 0.0 101912
20 апреля, вт
вт2001:00+13зюз11940 0.0 101815
04:00+13зюз11950 0.0 101821
07:00+14з12890 0.0 101958
10:00+21зсз25580 0.0 1019820
13:00+24зсз35460 0.0 10161482
16:00+24с13520 0.0 1015727
19:00+16зсз01900 0.0 101611
22:00+15юз11920 0.0 101712
21 апреля, ср
ср2101:00+14зюз11960 0.0 101611
04:00+14зюз21951 0.0 101630
07:00+15зюз22840 0.0 101755
10:00+23зсз24420 0.0 1016687
13:00+25з37330 0.0 10141850
16:00+25з13430 0.0 1013110
19:00+16ю11680 0.0 101513
22:00+15юз22560 0.0 101728
22 апреля, чт
чт2201:00+13ююз22580 0.0 101621
04:00+13ююз21632 0.0 101523
07:00+14юз1172100 0.0 101629
10:00+21сз1161100 0.0 1016557
13:00+23сз1343100 0.0 1013945
16:00+20зсз1156100 0.0 101339
19:00+17юз1161100 0.0 101613
22:00+16зюз1157100 0.0 101629